{"data":{"norad_id":60198,"epoch":"2026-05-24T21:24:40.588416Z","epoch_age_seconds":74468,"freshness":"FRESH","line1":"1 60198U 24124R   26144.89213644  .00000300  00000+0  21424-4 0  9990","line2":"2 60198  53.1615 328.4701 0001070  96.4098 263.7025 15.31702705107190","mean_motion":15.31702705,"eccentricity":0.000107,"inclination_deg":53.1615,"raan_deg":328.4701,"arg_perigee_deg":96.4098,"mean_anomaly_deg":263.7025,"bstar":2.1424e-5,"rev_number":10719,"period_min":94.013021933,"perigee_km":469.99910279757,"apogee_km":471.46476074897,"semimajor_km":6848.8689317733,"source":"CELESTRAK","updated_at":"2026-05-25T13:38:19.196669Z"}}